QZS-3 (MICHIBIKI-3)

Last updated on Thu Oct 30 2025 00:02:50 GMT+0000 (Coordinated Universal Time)

1 42917U 17048A 25302.51936618 -.00000338 00000+0 00000+0 0 9997 2 42917 0.0521 195.4788 0001724 5.9389 150.7316 1.00271579 29942
UTC large
Height (km)
Speed (km/s)
/
Latitude / Longitude
Inclination (degrees)
Orbital Period (minutes)
Azimuth
Elevation
Range (km)
Doppler Factor

Next 0 passes for location: London (51.5072 / 0.1276)

Sorry there are no passes over London.